Chipley, FL

8:01 PM CDT on April 25, 2017 (GMT -0500)
Chipley

Weather History for KVSH - January, 2013

Change the Weather History Date:

Tuesday, January 22, 2013

  Actual Average (KDHN) Record (KDHN)
Temperature  
Mean Temperature 52 °F -  
Max Temperature 57 °F 62 °F 77 °F (1949)
Min Temperature 46 °F 45 °F 17 °F (1961)
Degree Days  
Heating Degree Days 14    
Growing Degree Days 2 (Base 50)    
Moisture  
Dew Point 39 °F    
Average Humidity 59    
Maximum Humidity 82    
Minimum Humidity 47    
Precipitation  
Precipitation 0.00 in - - ()
Sea Level Pressure  
Sea Level Pressure 30.31 in    
Wind  
Wind Speed 6 mph (ENE)    
Max Wind Speed 12 mph    
Max Gust Speed 16 mph    
Visibility 10 miles    
Events      
Averages and records for this station are not official NWS values.
T = Trace of Precipitation, MM = Missing Value Source: NWS Daily Summary

Daily Weather History Graph

Daily Weather History Graph

Search for Another Location

Airport or City:

Trip Planner

Search our weather history database for the weather conditions in past years. The results will help you decide how hot, cold, wet, or windy it might be!

Date:

Astronomy

Jan. 22, 2013 Rise Set
Actual Time 6:38 AM CST 5:09 PM CST
Civil Twilight 6:12 AM CST 5:35 PM CST
Nautical Twilight 5:43 AM CST 6:04 PM CST
Astronomical Twilight 5:14 AM CST 6:33 PM CST
Moon 1:35 PM CST (1/22) 2:57 AM CST (1/22)
Length of Visible Light 11h 22m
Length of Day
10h 31m
Waxing Gibbous, 83% of the Moon is Illuminated
Jan 22
Waxing Gibbous
Jan 26
Full
Feb 3
Last Quarter
Feb 10
New
Feb 17
First Quarter

Hourly Weather History & Observations

Time (CST) Temp. Windchill Dew Point Humidity Pressure Visibility Wind Dir Wind Speed Gust Speed Precip Events Conditions
12:15 AM 55.4 °F - 42.8 °F 63% 30.22 in 10.0 mi NE 5.8 mph - N/A   Clear
12:35 AM 55.4 °F - 44.6 °F 67% 30.23 in 10.0 mi NNE 5.8 mph - N/A   Clear
1:15 AM 53.6 °F - 44.6 °F 72% 30.23 in 10.0 mi NNE 4.6 mph - N/A   Clear
1:35 AM 53.6 °F - 44.6 °F 72% 30.23 in 10.0 mi NNE 4.6 mph - N/A   Clear
1:55 AM 53.6 °F - 44.6 °F 72% 30.23 in 10.0 mi NNE 4.6 mph - N/A   Clear
2:15 AM 53.6 °F - 42.8 °F 67% 30.24 in 10.0 mi NE 4.6 mph - N/A   Clear
2:35 AM 53.6 °F - 42.8 °F 67% 30.24 in 10.0 mi NE 5.8 mph - N/A   Clear
2:55 AM 53.6 °F - 41.0 °F 62% 30.24 in 10.0 mi NE 6.9 mph - N/A   Clear
3:15 AM 53.6 °F - 39.2 °F 58% 30.24 in 10.0 mi East 9.2 mph - N/A   Clear
3:35 AM 51.8 °F - 39.2 °F 62% 30.24 in 10.0 mi ENE 4.6 mph - N/A   Clear
3:55 AM 51.8 °F - 39.2 °F 62% 30.25 in 10.0 mi NE 8.1 mph - N/A   Clear
4:15 AM 51.8 °F - 39.2 °F 62% 30.26 in 10.0 mi NNE 6.9 mph - N/A   Clear
4:35 AM 50.0 °F - 39.2 °F 66% 30.26 in 10.0 mi NNE 9.2 mph - N/A   Clear
4:55 AM 50.0 °F - 37.4 °F 62% 30.27 in 10.0 mi NNE 5.8 mph - N/A   Clear
5:15 AM 48.2 °F - 37.4 °F 66% 30.27 in 10.0 mi NNE 9.2 mph - N/A   Clear
5:35 AM 48.2 °F - 37.4 °F 66% 30.28 in 10.0 mi ENE 8.1 mph - N/A   Clear
5:55 AM 48.2 °F - 37.4 °F 66% 30.28 in 10.0 mi ENE 9.2 mph - N/A   Clear
6:15 AM 48.2 °F - 35.6 °F 62% 30.29 in 10.0 mi ENE 9.2 mph - N/A   Clear
6:35 AM 48.2 °F - 35.6 °F 62% 30.30 in 10.0 mi ENE 9.2 mph - N/A   Clear
6:55 AM 48.2 °F - 33.8 °F 58% 30.31 in 10.0 mi NE 8.1 mph - N/A   Clear
7:15 AM 46.4 °F 41.9 °F 33.8 °F 62% 30.31 in 10.0 mi ENE 9.2 mph - N/A   Clear
7:35 AM 46.4 °F 42.4 °F 33.8 °F 62% 30.33 in 10.0 mi NNE 8.1 mph - N/A   Clear
7:55 AM 46.4 °F 42.4 °F 32.0 °F 57% 30.33 in 10.0 mi NE 8.1 mph - N/A   Clear
8:15 AM 46.4 °F 42.9 °F 32.0 °F 57% 30.34 in 10.0 mi NE 6.9 mph - N/A   Clear
8:35 AM 48.2 °F - 32.0 °F 54% 30.35 in 10.0 mi NE 8.1 mph - N/A   Clear
8:55 AM 48.2 °F - 30.2 °F 50% 30.36 in 10.0 mi NE 11.5 mph 16.1 mph N/A   Clear
9:15 AM 48.2 °F - 30.2 °F 50% 30.37 in 10.0 mi NE 8.1 mph - N/A   Clear
9:35 AM 50.0 °F - 30.2 °F 47% 30.38 in 10.0 mi ENE 9.2 mph - N/A   Clear
9:55 AM 50.0 °F - 30.2 °F 47% 30.37 in 8.0 mi East 5.8 mph - N/A   Clear
10:15 AM 50.0 °F - 30.2 °F 47% 30.38 in 10.0 mi ENE 5.8 mph - N/A   Clear
10:35 AM 51.8 °F - 32.0 °F 47% 30.38 in 10.0 mi East 6.9 mph - N/A   Clear
10:55 AM 51.8 °F - 33.8 °F 50% 30.38 in 10.0 mi ENE 4.6 mph - N/A   Clear
11:15 AM 53.6 °F - 33.8 °F 47% 30.37 in 10.0 mi ENE 4.6 mph - N/A   Clear
11:35 AM 53.6 °F - 33.8 °F 47% 30.36 in 10.0 mi NE 8.1 mph - N/A   Clear
11:55 AM 53.6 °F - 35.6 °F 51% 30.36 in 10.0 mi NE 9.2 mph - N/A   Clear
12:15 PM 53.6 °F - 35.6 °F 51% 30.34 in 10.0 mi NE 8.1 mph - N/A   Clear
12:35 PM 55.4 °F - 35.6 °F 47% 30.34 in 10.0 mi NE 5.8 mph - N/A   Clear
12:55 PM 55.4 °F - 37.4 °F 51% 30.32 in 10.0 mi ENE 5.8 mph - N/A   Clear
1:15 PM 55.4 °F - 37.4 °F 51% 30.32 in 10.0 mi ENE 5.8 mph - N/A   Clear
1:35 PM 55.4 °F - 37.4 °F 51% 30.31 in 10.0 mi NE 6.9 mph - N/A   Clear
1:55 PM 55.4 °F - 37.4 °F 51% 30.31 in 10.0 mi ENE 6.9 mph - N/A   Clear
2:15 PM 55.4 °F - 37.4 °F 51% 30.31 in 10.0 mi NE 5.8 mph - N/A   Clear
2:35 PM 57.2 °F - 37.4 °F 48% 30.30 in 10.0 mi NE 6.9 mph - N/A   Clear
2:55 PM 57.2 °F - 39.2 °F 51% 30.30 in 10.0 mi ENE 4.6 mph - N/A   Clear
3:15 PM 57.2 °F - 39.2 °F 51% 30.30 in 10.0 mi NE 4.6 mph - N/A   Clear
3:35 PM 57.2 °F - 39.2 °F 51% 30.31 in 10.0 mi NE 6.9 mph - N/A   Clear
3:55 PM 57.2 °F - 39.2 °F 51% 30.30 in 10.0 mi NE 4.6 mph - N/A   Clear
4:15 PM 57.2 °F - 39.2 °F 51% 30.31 in 10.0 mi ENE 5.8 mph - N/A   Clear
4:35 PM 57.2 °F - 39.2 °F 51% 30.31 in 10.0 mi ENE 6.9 mph - N/A   Clear
4:55 PM 57.2 °F - 39.2 °F 51% 30.31 in 10.0 mi ENE 6.9 mph - N/A   Clear
5:15 PM 57.2 °F - 39.2 °F 51% 30.31 in 10.0 mi NE 5.8 mph - N/A   Clear
5:35 PM 57.2 °F - 39.2 °F 51% 30.31 in 10.0 mi ENE 4.6 mph - N/A   Clear
5:55 PM 55.4 °F - 41.0 °F 58% 30.32 in 10.0 mi Calm Calm - N/A   Clear
6:15 PM 55.4 °F - 41.0 °F 58% 30.32 in 10.0 mi East 3.5 mph - N/A   Clear
6:35 PM 55.4 °F - 41.0 °F 58% 30.32 in 10.0 mi SSE 3.5 mph - N/A   Clear
6:55 PM 55.4 °F - 41.0 °F 58% 30.33 in 10.0 mi SE 3.5 mph - N/A   Clear
7:15 PM 55.4 °F - 42.8 °F 63% 30.33 in 10.0 mi SSE 4.6 mph - N/A   Clear
7:35 PM 55.4 °F - 42.8 °F 63% 30.33 in 10.0 mi SSE 5.8 mph - N/A   Clear
7:55 PM 53.6 °F - 42.8 °F 67% 30.34 in 10.0 mi South 5.8 mph - N/A   Clear
8:15 PM 53.6 °F - 42.8 °F 67% 30.34 in 10.0 mi South 3.5 mph - N/A   Clear
8:35 PM 53.6 °F - 42.8 °F 67% 30.34 in 10.0 mi South 4.6 mph - N/A   Clear
8:55 PM 53.6 °F - 42.8 °F 67% 30.34 in 10.0 mi SSE 5.8 mph - N/A   Clear
9:15 PM 53.6 °F - 42.8 °F 67% 30.35 in 10.0 mi SSE 5.8 mph - N/A   Clear
9:35 PM 53.6 °F - 42.8 °F 67% 30.35 in 10.0 mi SSE 5.8 mph - N/A   Clear
9:55 PM 53.6 °F - 44.6 °F 72% 30.36 in 10.0 mi SE 6.9 mph - N/A   Clear
10:15 PM 53.6 °F - 42.8 °F 67% 30.36 in 10.0 mi Calm Calm - N/A   Clear
10:35 PM 53.6 °F - 44.6 °F 72% 30.36 in 10.0 mi South 4.6 mph - N/A   Clear
10:55 PM 53.6 °F - 44.6 °F 72% 30.36 in 10.0 mi South 4.6 mph - N/A   Clear
11:15 PM 51.8 °F - 44.6 °F 76% 30.36 in 10.0 mi SSE 5.8 mph - N/A   Clear
11:35 PM 53.6 °F - 44.6 °F 72% 30.35 in 10.0 mi SSE 4.6 mph - N/A   Clear
11:55 PM 51.8 °F - 46.4 °F 82% 30.35 in 10.0 mi Calm Calm - N/A   Clear